Mount Airy, NC

6:48 AM EST on December 16, 2019 (GMT -0500)
Mount Airy-Surry County

Weather History for KMWK - October, 2019

Change the Weather History Date:

Saturday, October 26, 2019

  Actual Average (KINT) Record (KINT)
Temperature  
Mean Temperature 64 °F -  
Max Temperature 73 °F 66 °F 82 °F (1975)
Min Temperature 56 °F 45 °F 28 °F (2013)
Growing Degree Days 14 (Base 50)    
Moisture  
Dew Point 57 °F    
Average Humidity 79    
Maximum Humidity 92    
Minimum Humidity 56    
Precipitation  
Precipitation 0.00 in - - ()
Sea Level Pressure  
Sea Level Pressure 30.12 in    
Wind  
Wind Speed 3 mph ()    
Max Wind Speed 13 mph    
Max Gust Speed 24 mph    
Visibility 9.8 miles    
Events Rain    
Averages and records for this station are not official NWS values.
T = Trace of Precipitation, MM = Missing Value Source: Averaged Metar Reports

Daily Weather History Graph

Daily Weather History Graph

Search for Another Location

Airport or City:

Astronomy

Oct. 26, 2019 Rise Set
Actual Time 7:39 AM EDT 6:32 PM EDT
Civil Twilight 7:12 AM EDT 6:58 PM EDT
Nautical Twilight 6:42 AM EDT 7:29 PM EDT
Astronomical Twilight 6:12 AM EDT 7:58 PM EDT
Moon 5:38 AM EDT (10/26) 6:02 PM EDT (10/26)
Length of Visible Light 11h 45m
Length of Day
10h 53m
Waning Crescent, 3% of the Moon is Illuminated
Oct 26
Waning Crescent
Oct 27
New
Nov 4
First Quarter
Nov 12
Full
Nov 19
Last Quarter

Hourly Weather History & Observations

Time (EDT) Temp. Dew Point Humidity Pressure Visibility Wind Dir Wind Speed Gust Speed Precip Events Conditions
12:15 AM 57.2 °F 53.6 °F 88% 30.25 in 10.0 mi Calm Calm - N/A   Overcast
12:35 AM 57.4 °F 53.6 °F 87% 30.24 in 10.0 mi Calm Calm - N/A   Overcast
12:55 AM 57.4 °F 53.8 °F 88% 30.23 in 10.0 mi Calm Calm - N/A   Mostly Cloudy
1:15 AM 57.2 °F 54.0 °F 89% 30.23 in 10.0 mi Calm Calm - N/A   Mostly Cloudy
1:35 AM 57.2 °F 53.6 °F 88% 30.22 in 10.0 mi Calm Calm - N/A   Mostly Cloudy
1:55 AM 57.6 °F 53.6 °F 87% 30.22 in 10.0 mi Calm Calm - N/A   Overcast
2:15 AM 57.6 °F 54.0 °F 88% 30.22 in 10.0 mi Calm Calm - N/A   Overcast
2:35 AM 58.1 °F 53.8 °F 86% 30.21 in 10.0 mi Calm Calm - N/A   Mostly Cloudy
2:55 AM 57.7 °F 53.6 °F 86% 30.21 in 10.0 mi Calm Calm - N/A   Mostly Cloudy
3:15 AM 57.9 °F 54.0 °F 87% 30.20 in 10.0 mi Calm Calm - N/A   Overcast
3:35 AM 57.6 °F 54.0 °F 88% 30.19 in 10.0 mi Calm Calm - N/A   Scattered Clouds
3:55 AM 57.2 °F 54.0 °F 89% 30.19 in 10.0 mi Calm Calm - N/A   Scattered Clouds
4:15 AM 57.2 °F 54.1 °F 89% 30.19 in 10.0 mi Calm Calm - N/A   Scattered Clouds
4:55 AM 56.7 °F 54.0 °F 91% 30.19 in 10.0 mi Calm Calm - N/A   Scattered Clouds
5:15 AM 57.2 °F 54.5 °F 91% 30.19 in 10.0 mi Calm Calm - N/A   Scattered Clouds
5:55 AM 57.2 °F 54.5 °F 91% 30.18 in 10.0 mi Calm Calm - N/A   Mostly Cloudy
6:15 AM 57.2 °F 54.5 °F 91% 30.18 in 10.0 mi Calm Calm - N/A   Mostly Cloudy
6:35 AM 57.0 °F 54.5 °F 91% 30.17 in 10.0 mi Calm Calm - N/A   Scattered Clouds
6:55 AM 56.8 °F 54.1 °F 91% 30.17 in 10.0 mi Calm Calm - N/A   Clear
7:15 AM 56.3 °F 53.8 °F 91% 30.18 in 10.0 mi Calm Calm - N/A   Clear
7:35 AM 56.3 °F 53.8 °F 91% 30.17 in 10.0 mi Calm Calm - N/A   Scattered Clouds
7:55 AM 56.3 °F 53.8 °F 91% 30.18 in 10.0 mi Calm Calm - N/A   Scattered Clouds
8:15 AM 57.2 °F 54.7 °F 91% 30.18 in 10.0 mi Calm Calm - N/A   Scattered Clouds
8:35 AM 57.7 °F 55.2 °F 91% 30.19 in 10.0 mi Calm Calm - N/A   Scattered Clouds
8:55 AM 60.3 °F 56.5 °F 87% 30.19 in 10.0 mi Calm Calm - N/A   Scattered Clouds
9:15 AM 61.5 °F 56.1 °F 82% 30.19 in 10.0 mi Calm Calm - N/A   Clear
9:35 AM 62.6 °F 55.6 °F 78% 30.19 in 10.0 mi East 4.6 mph - N/A   Clear
9:55 AM 63.0 °F 55.9 °F 78% 30.18 in 10.0 mi East 5.8 mph - N/A   Clear
10:15 AM 65.3 °F 56.8 °F 74% 30.18 in 10.0 mi East 6.9 mph - N/A   Clear
10:35 AM 65.8 °F 57.4 °F 74% 30.17 in 10.0 mi East 6.9 mph - N/A   Clear
10:55 AM 68.0 °F 58.5 °F 71% 30.17 in 10.0 mi ENE 6.9 mph - N/A   Clear
11:15 AM 68.2 °F 58.8 °F 72% 30.18 in 10.0 mi ENE 6.9 mph - N/A   Clear
11:35 AM 68.4 °F 58.8 °F 71% 30.18 in 10.0 mi East 6.9 mph - N/A   Clear
11:55 AM 69.8 °F 59.2 °F 69% 30.17 in 10.0 mi East 6.9 mph - N/A   Clear
12:15 PM 70.9 °F 58.8 °F 66% 30.17 in 10.0 mi SSE 8.1 mph - N/A   Scattered Clouds
12:35 PM 71.2 °F 58.1 °F 63% 30.16 in 10.0 mi ESE 6.9 mph - N/A   Mostly Cloudy
12:55 PM 72.5 °F 56.8 °F 58% 30.15 in 10.0 mi ESE 9.2 mph 16.1 mph N/A   Mostly Cloudy
1:15 PM 72.5 °F 57.4 °F 59% 30.14 in 10.0 mi ESE 9.2 mph - N/A   Scattered Clouds
1:35 PM 73.6 °F 58.3 °F 59% 30.12 in 10.0 mi East 9.2 mph - N/A   Mostly Cloudy
1:55 PM 72.7 °F 58.1 °F 60% 30.10 in 10.0 mi ESE 8.1 mph 16.1 mph N/A   Scattered Clouds
2:15 PM 72.9 °F 58.1 °F 60% 30.10 in 10.0 mi ESE 8.1 mph - N/A   Scattered Clouds
2:55 PM 73.0 °F 57.4 °F 58% 30.08 in 10.0 mi East 8.1 mph - N/A   Mostly Cloudy
3:15 PM 73.0 °F 56.5 °F 56% 30.07 in 10.0 mi SE 10.4 mph 18.4 mph N/A   Overcast
3:35 PM 73.2 °F 57.0 °F 57% 30.07 in 10.0 mi East 10.4 mph - N/A   Mostly Cloudy
3:55 PM 72.5 °F 57.7 °F 60% 30.07 in 10.0 mi ESE 6.9 mph - N/A   Mostly Cloudy
4:15 PM 72.0 °F 58.1 °F 62% 30.07 in 10.0 mi ESE 8.1 mph - N/A   Overcast
4:55 PM 71.1 °F 58.3 °F 64% 30.05 in 10.0 mi ESE 8.1 mph - N/A   Overcast
5:35 PM 70.7 °F 59.2 °F 67% 30.05 in 10.0 mi ESE 8.1 mph - N/A   Overcast
5:55 PM 70.5 °F 59.9 °F 69% 30.05 in 10.0 mi ESE 8.1 mph - N/A   Overcast
6:15 PM 70.2 °F 59.9 °F 70% 30.05 in 10.0 mi ESE 8.1 mph - N/A   Overcast
6:35 PM 70.0 °F 60.1 °F 71% 30.04 in 10.0 mi ESE 8.1 mph - N/A   Overcast
6:55 PM 69.8 °F 60.3 °F 72% 30.04 in 10.0 mi ESE 11.5 mph - N/A   Overcast
7:15 PM 69.4 °F 60.4 °F 73% 30.04 in 10.0 mi East 10.4 mph 17.3 mph N/A   Overcast
7:35 PM 69.8 °F 60.4 °F 72% 30.03 in 10.0 mi ESE 11.5 mph 18.4 mph N/A   Overcast
7:55 PM 69.3 °F 60.4 °F 73% 30.03 in 10.0 mi ESE 11.5 mph 21.9 mph N/A   Overcast
8:15 PM 69.3 °F 61.2 °F 75% 30.03 in 10.0 mi ESE 11.5 mph 24.2 mph N/A   Mostly Cloudy
8:35 PM 68.2 °F 61.7 °F 80% 30.02 in 10.0 mi ESE 9.2 mph 20.7 mph N/A   Overcast
8:55 PM 65.7 °F 61.9 °F 88% 30.02 in 4.0 mi ESE 6.9 mph 18.4 mph N/A Rain Light Rain
9:15 PM 64.6 °F 61.7 °F 90% 30.02 in 7.0 mi East 9.2 mph - N/A   Drizzle
9:35 PM 64.4 °F 61.7 °F 91% 30.01 in 10.0 mi East 8.1 mph - N/A   Overcast
9:55 PM 64.4 °F 61.7 °F 91% 30.00 in 10.0 mi East 6.9 mph - N/A   Overcast
10:15 PM 64.8 °F 61.7 °F 90% 30.00 in 10.0 mi ESE 8.1 mph - N/A   Overcast
10:35 PM 66.0 °F 63.0 °F 90% 30.00 in 10.0 mi ESE 10.4 mph 17.3 mph N/A   Mostly Cloudy
10:55 PM 66.4 °F 63.5 °F 90% 29.99 in 10.0 mi ESE 10.4 mph 19.6 mph N/A   Light Drizzle
11:15 PM 66.2 °F 63.5 °F 91% 29.99 in 10.0 mi ESE 12.7 mph 19.6 mph N/A   Overcast
11:35 PM 65.8 °F 63.5 °F 92% 29.97 in 10.0 mi ESE 10.4 mph - N/A   Overcast
11:55 PM 66.2 °F 63.5 °F 91% 29.97 in 7.0 mi ESE 10.4 mph 16.1 mph N/A Rain Rain